Location: Cosy Dell
(34.2789°N, 117.4537°W)
Time: 11:06:53
(UTC+00:00)

NOSS 3-4 (A) - Pass Details

Date: 14 July 2020
Orbit: 892 x 1320 km, 63.4° (Epoch: 12 July)

Event Time Altitude Azimuth Distance (km) Brightness Sun altitude
Rises 04:50:10 0° 333° (NNW) 3,883 8.0 -18.8°
Reaches altitude 10° 04:52:48 10° 338° (NNW) 2,985 7.0 -19.2°
Maximum altitude 04:59:51 56° 56° (NE) 1,405 4.2 -20.2°
Enters shadow 05:03:32 31° 119° (ESE) 2,006 4.6 -20.7°
